Regional Weather Roundup
Issued by NWS

Home | Current Version | Previous Version | Text Only | Print | Product List | Glossary On
Versions: 1 2 3 4 5 6 7 8 9 10 11 12 13 14 15 16 17 18 19 20 21 22 23 24 25 26 27 28 29 30 31 32 33 34 35 36 37 38 39 40 41 42 43 44 45 46 47 48 49 50
000
ASCA42 TJSJ 251110
RWRPR
PUERTO RICO/U.S. VIRGIN ISLANDS HOURLY WEATHER ROUNDUP
NATIONAL WEATHER SERVICE SAN JUAN PR
700 AM AST MON MAY 25 2015

PRZ001-004-251200-
PUERTO RICO

CITY           SKY/WX    TMP DP  RH WIND       PRES   REMARKS
SAN JUAN LMM   MOSUNNY   79  73  83 CALM      30.07R
PONCE          SUNNY     79  72  78 NE6       30.00
AGUADILLA      MOSUNNY   75  70  83 SE7       30.08
CEIBA          CLOUDY    81  70  69 E10G20    30.08R
$$

PRZ006-007-251200-
U.S. VIRGIN ISLANDS

CITY           SKY/WX    TMP DP  RH WIND       PRES   REMARKS
CHARLOTTE AMA  CLOUDY    81  72  74 E6        30.05R
CHRISTIANSTED  MOSUNNY   81  70  69 E13       30.05R
$$

HOURLY WEATHER ROUNDUP FOR THE NEWS MEDIA

CITY           SKY/WX    TMP DP  RH WIND       PRES   REMARKS
ORLANDO        CLEAR     72  70  93 E7        30.18S
NEW YORK       PTSUNNY   62  55  77 S6        30.29R
NEWARK         PTSUNNY   64  55  72 S6        30.27R
CHICAGO        CLOUDY    70  62  76 S23G30    29.83S
HARTFORD       SUNNY     57  52  83 SW8       30.26F
BOSTON         PTSUNNY   60  50  69 S8        30.24S
DALLAS         DRIZZLE   71  68  90 S10       29.88S FOG
PHILADELPHIA   MOSUNNY   65  58  78 S6        30.27S
LOS ANGELES    PTCLDY    58  53  84 CALM      29.95F
WASHINGTON DC  MOSUNNY   63  56  78 S8        30.27R


USA.gov is the U.S. government's official web portal to all federal, state and local government web resources and services.